GFSFLT2_con_mucape_096.txt.gz
CAPE
1195 1433 1599 1652 1709 1736 1866 2034 2071 1758 1873 2006 2160 1949 1748 1747 1741 1566 1434 1375 1239 1310 1216 1105 1065 958 550 468 460 502 577 538
1085 1366 1480 1469 1526 1711 1866 2078 1702 1449 1565 1669 2065 1896 1560 1538 1444 1312 1170 1093 1036 1046 927 828 884 703 376 299 431 493 415 423
1070 1167 1309 1276 1336 1593 1818 1707 1460 1382 1717 1714 2079 1945 1737 1434 1287 1094 890 680 832 785 686 514 693 553 311 218 355 364 376 357
1156 1106 1237 1183 1198 1459 1705 1634 1503 1509 1522 1834 2067 1953 1734 1365 1191 949 695 524 546 636 560 478 556 519 311 222 295 310 275 278
1776 1204 1094 1099 1151 1226 1478 1714 1714 1616 1621 1861 1836 1751 1632 1365 1086 919 712 500 500 650 733 602 544 534 337 234 274 335 329 310
2133 2009 1337 1225 1379 1056 1074 1312 1307 1624 1699 1639 1454 1531 1455 1294 1040 898 760 654 636 567 622 590 493 359 278 139 237 359 292 235
2400 2354 1897 1597 1680 1539 1043 1049 1198 1318 1349 1195 1197 1374 1226 1108 1051 910 798 738 512 561 503 205 259 250 174 77 105 229 221 165
2525 2516 2387 2101 1922 1612 1373 1156 1059 1050 1245 1260 1039 1246 1134 1002 979 943 876 682 491 509 232 100 59 173 160 87 73 115 157 109
2579 2595 2623 2298 2076 1723 1624 1384 1461 1259 1210 1336 1263 1112 1114 1013 950 941 845 625 491 276 134 77 44 162 73 75 68 61 90 105
2428 2410 2538 2307 2100 1889 1885 1640 1811 1600 1697 1507 1543 1417 1226 1116 1070 998 777 601 445 273 156 88 54 39 60 25 44 46 46 90
2101 2338 2393 2452 2113 1670 1809 1879 2047 1834 1831 1719 1587 1460 1258 1110 1037 1029 851 570 473 313 107 118 59 32 21 19 55 47 38 58
1523 2192 2269 2316 2230 1652 1819 2023 2021 1807 1638 1663 1550 1315 1286 1159 1040 921 667 530 438 298 215 89 55 56 12 65 47 57 48 47
1303 2082 2135 2236 2245 1657 1581 1875 1745 1601 1360 1036 1202 1213 1008 1045 993 919 705 542 423 292 216 137 74 32 49 64 42 37 29 37
321 1870 2034 2103 2096 1925 1497 1611 1657 1543 975 984 840 935 763 945 759 662 593 513 427 333 199 94 53 25 12 7 5 0 30 25
374 1668 1862 1917 2033 1830 1521 1442 1416 1127 998 755 598 483 438 1300 735 621 508 427 542 368 166 119 38 26 16 1 7 0 13 8
66 1609 1756 1830 1933 1872 1401 1348 1333 1311 966 576 376 754 1060 711 712 578 397 320 273 238 164 79 47 43 36 11 5 0 0 1
1146 1698 1826 1836 1922 1822 1695 1481 1476 1118 910 507 302 270 544 751 522 494 402 281 196 126 125 84 78 76 30 26 29 5 0 0
1544 1867 1941 1789 1779 1765 1679 1613 1366 1075 940 551 195 139 189 609 300 235 269 151 143 136 105 86 61 79 44 30 36 22 0 3
1810 1835 1794 1843 1786 1790 1558 1502 1301 1183 1060 410 237 105 84 167 253 186 168 195 127 62 107 103 102 76 49 23 25 0 0 0
1426 1717 1667 1492 1619 1408 1272 1541 1413 1196 614 417 251 179 133 152 209 214 158 102 46 45 53 88 37 56 66 48 5 4 5 3

GFSFLT2_con_mucape_099.txt.gz
CAPE
1477 1612 1659 1729 1851 1923 1921 1833 1797 1837 1949 1986 2072 2021 1948 1834 1895 1849 1646 1546 1676 1601 1390 1232 1178 1083 830 676 723 803 683 607
1200 1442 1562 1608 1609 1630 1770 1870 1837 1882 1952 1940 2004 1877 1770 1690 1673 1580 1442 1369 1459 1535 1337 1203 1157 953 728 683 567 714 556 597
1073 1270 1366 1471 1509 1599 1743 1885 1909 1632 1778 1704 1881 1790 1614 1565 1471 1295 1171 1058 1090 1353 1202 1104 1053 848 612 606 591 601 483 478
981 1143 1256 1290 1345 1552 1708 1912 1703 1315 1309 1368 1765 1830 1591 1408 1380 1164 886 819 832 961 848 875 862 755 635 499 490 510 439 380
1005 1103 1158 1148 1199 1441 1641 1731 1550 1199 1390 1506 1876 1844 1753 1410 1333 1084 836 703 565 481 541 431 629 760 595 478 512 443 422 356
1429 1105 1077 1050 1050 1206 1595 1451 1742 1525 1355 1446 1980 1927 1761 1506 1280 1145 886 773 571 436 374 408 522 771 542 394 394 352 300 349
1733 1467 1110 968 985 899 1100 1416 1592 2086 1507 1610 1929 1867 1654 1524 1240 1083 969 853 665 438 390 425 523 667 428 323 315 230 221 316
2148 1950 1724 1448 1167 891 762 1004 1390 1491 1380 1495 1731 1639 1539 1460 1296 1084 947 906 773 553 419 514 572 348 307 93 97 104 91 249
2275 2303 2172 2032 1719 1351 1177 776 907 999 1216 1413 1407 1303 1410 1298 1176 1053 959 894 809 704 355 339 206 105 63 87 73 68 75 91
2150 2364 2397 2396 2172 1757 1508 1008 922 861 1001 1185 1151 1039 1197 1107 943 794 893 877 841 756 338 237 42 75 39 70 75 71 71 70
1483 2321 2420 2526 2510 2262 1896 1273 1134 956 921 933 1145 1073 1026 1012 896 767 981 862 846 690 416 281 99 49 67 40 32 53 50 56
33 1915 2283 2495 2600 2401 2143 1625 1470 1309 1274 1195 1193 1366 1304 1198 1129 1057 1152 917 699 622 563 332 110 63 87 32 29 33 36 45
0 1418 2040 2127 2287 2353 2149 1834 1712 1560 1709 1580 1656 1615 1540 1422 1242 1103 1036 971 988 620 357 318 136 125 79 18 13 16 42 40
0 1005 1833 1959 1956 2033 1898 1876 1570 1332 1588 1689 1789 1639 1455 1255 1129 1075 999 884 1038 745 330 167 149 108 47 43 15 6 25 34
0 816 1741 1924 1913 1808 1793 1579 1418 1423 1608 1553 1607 1390 1303 1097 758 923 920 1089 781 680 358 218 115 57 56 52 38 14 5 0
0 577 1750 1911 1931 1651 1502 1574 1314 1246 1210 1250 1265 883 963 587 611 870 652 780 704 782 387 281 192 132 67 56 20 1 2 0
317 115 1508 1789 1919 1732 1623 1582 1241 1000 976 1061 856 659 700 489 308 996 410 506 734 538 490 372 135 71 62 68 29 6 0 4
892 627 1398 1777 1912 1769 1502 1402 1383 1008 875 949 817 559 302 341 775 558 699 344 426 498 543 150 100 85 72 61 61 26 3 2
929 1349 1713 1877 1844 1722 1557 1416 1365 1021 1017 1018 813 535 261 213 341 269 292 459 427 311 126 75 100 55 53 111 48 26 16 18
349 1522 1907 1895 1708 1579 1360 1388 1447 1224 1185 968 818 483 239 74 105 197 103 331 357 145 109 73 34 51 57 85 40 41 24 8

GFSFLT2_con_mucape_102.txt.gz
CAPE
1699 1810 1876 1896 1885 1882 1908 1824 1773 1736 1751 1878 2049 2021 1912 1956 1981 1995 1820 1695 1686 1523 1237 1148 1220 1193 934 840 833 855 814 965
1731 1842 1916 1879 1809 1801 1864 1854 1823 1784 1755 1762 1857 1862 1805 1762 1791 1788 1581 1453 1587 1403 1170 1133 1153 1116 985 835 832 779 777 839
1540 2118 2053 1743 1810 1907 1887 1910 1904 1860 1828 1795 1796 1749 1758 1666 1636 1620 1347 1192 1444 1343 1135 1059 1083 1084 982 773 897 891 726 678
1257 1531 2032 1745 1513 1538 1640 1859 1892 1929 1883 1844 1799 1730 1657 1612 1549 1523 1267 988 1211 1263 1129 1035 1068 1013 893 823 731 872 755 687
886 1089 1536 1408 1486 1455 1621 2295 1838 1913 1682 1686 1657 1789 1661 1530 1465 1429 1184 855 832 1068 995 858 942 951 842 775 766 805 705 633
796 963 1015 1224 1223 1387 1774 2292 1640 1706 1565 1289 1348 1750 1784 1539 1437 1362 1140 875 747 791 870 785 736 846 789 654 700 612 503 505
1639 1069 1110 1185 1161 1165 1207 1632 1811 1427 1093 1297 1260 1572 1863 1647 1436 1349 1149 884 721 640 438 448 318 594 579 531 551 447 343 251
1826 1829 1539 1299 1050 967 1056 1155 1028 1509 2093 1625 1562 2031 2171 1709 1596 1338 1239 1016 851 757 550 373 309 452 539 462 323 299 121 124
1517 1915 1935 1680 1372 1040 863 862 806 1049 1748 1989 1600 1669 1794 1632 1615 1387 1232 1164 1007 801 620 459 242 439 457 292 210 85 59 48
358 1731 1893 2025 1817 1490 1147 1121 1032 1092 1520 1834 1538 1548 1817 1696 1484 1354 1295 1185 1064 807 717 507 302 346 186 115 73 27 42 60
0 997 1935 1870 2012 1991 1608 1373 1160 1098 830 952 1109 1463 1619 1502 1410 1182 1156 1107 1025 909 799 641 290 217 116 65 50 33 41 57
0 2 1649 1959 1905 2019 1924 1680 1364 1438 1042 918 979 1227 1263 1178 1155 1064 1405 809 765 803 788 663 433 233 84 63 34 38 41 42
0 0 758 1925 2016 1966 2033 1881 1775 1657 1308 899 840 969 1047 1018 975 922 908 827 688 695 873 558 532 297 138 59 45 48 1 20
0 0 143 1851 1854 1874 1821 1688 1613 1546 1523 1044 853 904 987 1126 1100 1099 1041 900 764 841 1120 535 387 377 80 74 39 31 25 29
0 0 2 1571 1813 1961 1861 1838 1580 1744 1665 1371 1256 1323 1332 1346 1370 1098 1282 1627 610 928 995 905 331 316 333 39 44 12 5 7
0 0 0 873 1743 1797 1505 1516 1383 1154 1504 1813 1413 1568 1671 1674 1606 1379 1224 766 642 800 921 794 546 249 54 58 25 35 19 0
188 88 141 11 1704 1702 1558 1428 1356 1106 1126 1274 1153 1333 1432 1688 1453 1296 665 316 795 806 661 1009 288 255 108 17 46 35 38 13
17 277 483 105 1640 1745 1533 1365 1335 1275 1050 1266 1188 1300 1652 1309 1181 844 324 291 583 708 785 720 325 193 177 254 50 35 33 31
47 54 476 474 1247 1709 1577 1407 1335 1214 1057 987 1139 1102 1276 873 718 441 187 289 210 155 596 565 258 110 88 114 134 29 21 40
34 51 251 884 1390 1694 1685 1620 1374 1271 1139 1051 909 855 957 683 534 304 233 354 262 349 165 389 260 125 93 33 9 62 79 28

GFSFLT2_con_mucape_105.txt.gz
CAPE
2244 2310 2159 1936 1974 1918 1793 1660 1674 1779 1898 2009 2168 2227 2231 2104 2201 2254 2169 2130 2099 1930 1370 1227 1281 1228 1127 1123 1165 1190 1733 1753
1931 1971 2372 2203 2404 1877 1832 1697 1662 1716 1772 1888 2019 2005 2035 2062 2099 2192 2012 2008 1895 1701 1220 1144 1200 1162 1070 1036 1027 1084 1633 1630
1539 1725 2168 2031 2231 2160 1845 1780 1736 1728 1739 1747 1945 2230 2303 2243 2058 2080 1843 1641 1688 1540 1145 1071 1154 1159 999 915 900 1465 1532 1560
1843 2201 2336 2293 1868 2243 2359 2078 2274 2319 2262 2185 2162 2260 2279 2051 1932 1817 1742 1350 1543 1378 1155 1066 1189 1680 1303 924 1504 1578 1484 1513
1157 1776 2112 2038 1999 1850 1952 1878 1969 2177 2345 2489 2264 2206 2296 2180 2144 2182 2294 1349 1909 1484 1413 1607 1647 1773 1511 1377 1404 1253 1450 1369
1224 961 1399 1947 1802 1516 1622 1906 2110 2128 2314 2506 2455 1987 2044 2175 2064 2316 2322 1919 1879 1895 1824 1717 1666 1650 1668 1332 834 1055 1283 1343
1273 1056 693 1188 1755 1390 1513 1541 1631 1903 2219 2296 2455 1822 1882 1834 2167 2077 1982 1763 1675 1573 1598 1427 1503 1458 1442 1380 963 1029 795 819
2029 1440 1055 1140 1116 1354 1370 1456 1557 1884 2210 2131 2148 2146 1840 1895 1692 1675 1698 1599 1438 1393 1372 1335 1275 1217 1236 1031 1096 846 600 218
130 1642 1473 1467 1453 1567 1659 1500 1667 1386 1426 1442 1332 1415 2084 2195 1972 1425 1308 1265 1221 1088 1007 899 1074 819 740 969 1067 908 659 164
0 204 1798 1817 1744 1704 1774 1651 1563 1268 1079 1218 1503 1814 2032 2322 2147 1857 1368 1286 1216 1082 972 798 737 665 553 851 961 697 116 92
0 0 446 1751 1884 1937 1757 1642 1442 1511 1124 1095 1600 1872 1915 1973 2121 1957 1502 1346 1234 1206 1097 900 651 507 579 735 758 439 53 34
0 0 0 1359 1906 1794 1699 1620 1540 1235 1007 1033 1078 1810 1908 1888 1806 1371 1142 1284 1016 1105 1003 832 743 588 423 372 367 380 172 58
0 0 0 0 1163 1801 1405 1106 1439 1499 1246 1326 1343 1513 1632 1566 1389 1245 1139 1093 1175 860 683 791 572 417 342 346 215 323 220 62
0 0 0 0 235 1541 1819 1532 1333 1471 1491 1270 1140 1118 1180 1164 1161 979 1045 900 1026 791 525 678 436 543 400 353 183 78 107 115
0 0 0 0 7 1361 2070 1520 1482 1488 1989 1431 1460 1394 1170 1119 1015 818 805 807 888 609 518 729 308 481 602 320 201 139 15 23
0 0 1 1 0 614 1615 1346 1295 1444 1835 1486 1578 1398 1055 1125 909 730 726 882 808 549 498 440 251 180 282 248 117 18 29 6
0 0 0 36 3 8 1476 1623 1725 1931 1976 1986 1609 1272 1182 1012 862 809 965 937 731 876 630 284 207 290 228 261 90 24 15 124
0 0 0 0 85 133 908 1684 1801 1716 1991 1973 1620 1580 1803 1132 1098 1201 1102 1125 1113 671 313 286 240 200 153 121 167 31 9 8
0 0 0 1 0 340 309 1516 1548 1756 1802 1953 1448 1023 1448 1512 1122 1115 1417 1247 1154 489 194 295 202 251 207 267 135 63 73 37
0 0 0 8 214 441 515 1428 1484 1748 1821 1758 1380 879 1195 1709 998 1069 1384 1047 732 430 444 311 214 263 185 177 170 113 101 59